This is the latest recevied weather packets stored in our database for station/object WE0DX-1. If no packets are shown the sender has not sent any weather packets the latest 10 day(s).
| Time | Temp. | Humidity | Pressure | Rain* | Wind** | Luminosity | Snow |
|---|---|---|---|---|---|---|---|
| 1778017647 | 11.11° C | 79% | 1011.3 hPa | 0 mm | - | 58 W/m² | - |
| 1778017344 | 11.11° C | 79% | 1011.2 hPa | 0 mm | - | 61 W/m² | - |
| 1778017042 | 11.11° C | 77% | 1011.1 hPa | 0 mm | - | 62 W/m² | - |
| 1778016739 | 11.11° C | 76% | 1010.9 hPa | 0 mm | - | 81 W/m² | - |
| 1778016435 | 11.11° C | 79% | 1011.2 hPa | 0 mm | - | 66 W/m² | - |
| 1778016132 | 11.11° C | 77% | 1011 hPa | 0 mm | - | 64 W/m² | - |
| 1778015829 | 11.11° C | 76% | 1010.9 hPa | 0 mm | - | 129 W/m² | - |
| 1778015526 | 11.11° C | 76% | 1011.1 hPa | 0 mm | - | 111 W/m² | - |
| 1778015223 | 11.11° C | 75% | 1011.5 hPa | 0 mm | - | 69 W/m² | - |
| 1778014920 | 11.11° C | 76% | 1011.2 hPa | 0 mm | - | 118 W/m² | - |
| 1778014617 | 11.11° C | 76% | 1011.3 hPa | 0 mm | - | 134 W/m² | - |
| 1778014315 | 11.11° C | 76% | 1011.4 hPa | 0 mm | - | 142 W/m² | - |
| 1778014012 | 10.56° C | 77% | 1011.3 hPa | 0 mm | - | 139 W/m² | - |
| 1778013709 | 10.56° C | 76% | 1011.4 hPa | 0 mm | - | 138 W/m² | - |
| 1778013406 | 10.56° C | 75% | 1011.6 hPa | 0 mm | - | 111 W/m² | - |
| 1778013102 | 10.56° C | 76% | 1011.5 hPa | 0 mm | - | 159 W/m² | - |
| 1778012798 | 10.56° C | 76% | 1011.2 hPa | 0 mm | - | 140 W/m² | - |
| 1778012494 | 10.56° C | 79% | 1011.5 hPa | 0 mm | - | 104 W/m² | - |
| 1778012186 | 10.56° C | 79% | 1011.2 hPa | 0 mm | - | 97 W/m² | - |
| 1778011884 | 10.56° C | 80% | 1011.4 hPa | 0 mm | - | 96 W/m² | - |
| 1778011581 | 10.56° C | 79% | 1011.4 hPa | 0 mm | - | 126 W/m² | - |
| 1778011278 | 10.56° C | 87% | 1011.7 hPa | 0 mm | - | 116 W/m² | - |
| 1778010974 | 10.56° C | 87% | 1011.8 hPa | 0 mm | - | 130 W/m² | - |
| 1778010671 | 10.56° C | 88% | 1011.6 hPa | 0 mm | - | 168 W/m² | - |
| 1778010368 | 10.56° C | 87% | 1011.5 hPa | 0 mm | - | 157 W/m² | - |
* Rain latest hour (hover to see other rain measurements)
** Current wind speed in m/s (hover to see current wind gust speed)